[[{"header":{"parameterUnit":"m.s-1","parameterCategory":1,"la1":30.2991,"la2":30.254,"lo1":-89.0895,"lo2":-89.0444,"dx":0.0017,"dy":0.0017,"nx":28,"ny":28,"refTime":"2023-01-30T15:00:00:Z","depth":0,"parameterNumber":2,"parameterNumberName":"U-component_of_WINDS"},"data":[0,0,0,0,0,0,0,0,0,0,0,0,0,0,0,0,0,0,0,0,0,0,0,0,0,0,0,0,0,0,0,0,0,0,0,0,0,0,0,0,0,0,0,0,0,0,0,0,0,0,0,0,0,0,0,0,0,0,-0.8911,-0.8911,0,-0.8896,-0.8896,-0.8896,-0.8893,-0.8893,-0.8893,-0.8893,-0.8877,-0.8876,-0.8876,0,0,0,0,0,0,0,0,0,0,0,0,0,-0.8935,-0.8935,-0.8911,-0.8911,-0.8911,-0.8896,-0.8896,-0.8896,-0.8893,-0.8893,-0.8893,-0.8893,-0.8877,-0.8876,-0.8876,0,0,0,0,0,0,0,0,0,0,0,0,0,-0.8923,-0.8935,-0.8911,-0.8907,-0.8907,-0.8896,-0.8896,-0.8896,-0.8892,-0.8893,-0.8893,-0.8893,-0.8877,-0.8876,-0.8876,-0.8868,0,0,-0.8873,-0.8873,0,0,0,0,0,0,0,0,-0.8924,-0.8922,-0.8908,-0.8907,-0.8907,-0.8896,-0.8899,-0.8886,-0.8892,-0.8898,-0.8893,-0.8893,-0.8883,-0.8882,-0.8879,-0.8867,-0.8866,-0.8873,-0.8873,-0.8872,-0.8872,0,0,0,0,0,0,0,-0.8925,-0.8923,-0.8905,-0.8908,-0.8907,-0.8906,-0.8904,-0.8896,-0.889,-0.8897,-0.8897,-0.8895,-0.8883,-0.8879,-0.8878,-0.8866,-0.8873,-0.8872,-0.8872,-0.8872,-0.8848,-0.8848,0,0,0,0,0,0,-0.8926,-0.8923,-0.8906,-0.8905,-0.8916,-0.8905,-0.8904,-0.89,-0.889,-0.8889,-0.8895,-0.8895,-0.8881,-0.8879,-0.8878,-0.8868,-0.8872,-0.8872,-0.8871,-0.8848,-0.8848,-0.8848,0,0,0,0,0,0,-0.8927,-0.8925,-0.8906,-0.8914,-0.8912,-0.8905,-0.89,-0.8899,-0.8896,-0.8888,-0.8887,-0.8893,-0.8881,-0.8879,-0.887,-0.8867,-0.8871,-0.8871,-0.8848,-0.8848,-0.8848,-0.8849,0,0,0,0,0,0,-0.8927,-0.8925,-0.8922,-0.8914,-0.8911,-0.8899,-0.89,-0.8899,-0.8895,-0.8895,-0.8886,-0.8885,-0.8881,-0.8872,-0.887,-0.8866,-0.887,-0.8848,-0.8848,-0.8848,-0.8849,-0.8848,-0.8848,0,0,0,0,0,-0.8928,-0.8922,-0.8922,-0.892,-0.8907,-0.8899,-0.8898,-0.8893,-0.8895,-0.8891,-0.8887,-0.8885,-0.8868,-0.8871,-0.8869,-0.8865,-0.8848,-0.8848,-0.8848,-0.8849,-0.8849,-0.8848,0,0,0,0,0,0,-0.8929,-0.8921,-0.892,-0.8912,-0.8906,-0.8899,-0.8894,-0.8893,-0.8887,-0.8887,-0.8882,-0.888,-0.8872,-0.8868,-0.8871,-0.8857,-0.8858,-0.8858,-0.886,-0.886,-0.8859,-0.886,-0.8869,0,0,0,0,0,-0.8929,-0.8923,-0.8916,-0.8909,-0.8907,-0.8901,-0.8897,-0.8895,-0.8889,-0.8886,-0.8881,-0.8875,-0.8868,-0.8864,-0.8857,-0.8849,-0.8847,-0.8845,-0.8845,-0.8845,-0.8844,-0.8839,-0.8838,-0.8846,-0.8846,-0.8846,0,0,-0.8927,-0.8922,-0.8918,-0.8909,-0.8905,-0.8899,-0.8899,-0.8892,-0.8888,-0.8885,-0.8877,-0.8873,-0.8866,-0.8857,-0.8853,-0.8853,-0.8841,-0.8844,-0.8844,-0.8843,-0.8839,-0.8838,-0.8837,-0.8846,-0.8846,-0.8846,0,0,-0.8921,-0.8916,-0.891,-0.8906,-0.8899,-0.8896,-0.8895,-0.8887,-0.8885,-0.8877,-0.8874,-0.8869,-0.8858,-0.8853,-0.8849,-0.8842,-0.884,-0.884,-0.8838,-0.8834,-0.8833,-0.8832,-0.883,-0.8829,-0.8839,-0.8839,-0.8839,0,-0.8919,-0.891,-0.8907,-0.8901,-0.8897,-0.8895,-0.8889,-0.8885,-0.8876,-0.8873,-0.8874,-0.886,-0.8855,-0.8846,-0.8844,-0.8841,-0.8839,-0.8841,-0.8833,-0.8833,-0.8832,-0.883,-0.8829,-0.8839,-0.8839,-0.8839,-0.8839,0,-0.8909,-0.8903,-0.8899,-0.8891,-0.8887,-0.8881,-0.8876,-0.8873,-0.8871,-0.8867,-0.8859,-0.8854,-0.8846,-0.8844,-0.8842,-0.8834,-0.8835,-0.8834,-0.8835,-0.8831,-0.8829,-0.8828,-0.8839,-0.8839,-0.8839,-0.8839,0,0,-0.8902,-0.8893,-0.8892,-0.8889,-0.8882,-0.8877,-0.8871,-0.8864,-0.8861,-0.8855,-0.885,-0.8841,-0.8841,-0.8837,-0.8834,-0.883,-0.8825,-0.8831,-0.883,-0.883,-0.8817,-0.8817,-0.8816,-0.8825,-0.8824,-0.8824,-0.8817,0,-0.8894,-0.8884,-0.8881,-0.8872,-0.8866,-0.8865,-0.886,-0.8855,-0.8852,-0.8846,-0.8843,-0.8837,-0.8837,-0.8835,-0.8831,-0.8827,-0.8823,-0.8827,-0.8819,-0.8819,-0.882,-0.8814,-0.8814,-0.8808,-0.8816,-0.8816,-0.8816,0,-0.8884,-0.8879,-0.8869,-0.8864,-0.8861,-0.8857,-0.885,-0.8846,-0.884,-0.8838,-0.8834,-0.8832,-0.8826,-0.8828,-0.8819,-0.8822,-0.8819,-0.8817,-0.8816,-0.8815,-0.8817,-0.8812,-0.8805,-0.8804,-0.8815,-0.8815,-0.8815,0,-0.8879,-0.887,-0.8863,-0.8861,-0.8854,-0.8851,-0.8848,-0.8843,-0.8839,-0.8834,-0.8831,-0.8825,-0.8822,-0.8817,-0.8814,-0.8816,-0.8805,-0.8807,-0.8803,-0.8804,-0.8801,-0.8801,-0.8793,-0.8799,-0.8799,-0.8799,-0.8799,0,-0.8871,-0.8865,-0.8861,-0.8857,-0.885,-0.8848,-0.8841,-0.8838,-0.8834,-0.8829,-0.8828,-0.8823,-0.8819,-0.8814,-0.8811,-0.8805,-0.8803,-0.8801,-0.88,-0.8801,-0.8801,-0.8798,-0.8798,-0.8799,-0.8799,-0.8799,-0.8799,0,-0.8864,-0.8861,-0.8854,-0.8849,-0.8847,-0.8843,-0.8838,-0.8834,-0.8831,-0.8825,-0.8824,-0.8819,-0.8813,-0.881,-0.8802,-0.88,-0.8793,-0.8792,-0.8795,-0.8794,-0.8791,-0.8791,-0.878,-0.8778,-0.8787,-0.8787,-0.8787,0,-0.8858,-0.8854,-0.8849,-0.8845,-0.8843,-0.8838,-0.8834,-0.8832,-0.8828,-0.8823,-0.8819,-0.8813,-0.8808,-0.8799,-0.8795,-0.8789,-0.8788,-0.8785,-0.8787,-0.8788,-0.8788,-0.8788,-0.8788,-0.8784,-0.8784,-0.8784,-0.8784,0,-0.8848,-0.8848,-0.8843,-0.8838,-0.8834,-0.883,-0.8826,-0.8823,-0.882,-0.8816,-0.8811,-0.8807,-0.88,-0.8794,-0.8788,-0.8785,-0.8784,-0.8784,-0.8782,-0.8782,-0.8784,-0.8783,-0.8793,-0.8784,-0.8784,-0.8784,-0.8784,-0.8784,-0.8842,-0.8838,-0.8834,-0.8829,-0.8826,-0.8822,-0.8818,-0.8816,-0.8811,-0.8805,-0.8804,-0.8798,-0.8794,-0.8786,-0.8783,-0.8778,-0.8778,-0.8777,-0.8776,-0.8775,-0.8775,-0.8785,-0.8777,-0.8777,-0.8777,-0.8777,-0.8777,0,-0.8831,-0.8829,-0.8825,-0.8819,-0.8816,-0.8816,-0.8812,-0.8808,-0.8803,-0.8799,-0.8795,-0.8789,-0.8783,-0.878,-0.8774,-0.8771,-0.8771,-0.877,-0.877,-0.8769,-0.8775,-0.8777,-0.877,-0.877,-0.877,-0.877,-0.877,-0.877,-0.8826,-0.8819,-0.8818,-0.881,-0.8808,-0.8802,-0.88,-0.8797,-0.8794,-0.8787,-0.8783,-0.8781,-0.8777,-0.8772,-0.8767,-0.8766,-0.8764,-0.8763,-0.8762,-0.8768,-0.8768,-0.8769,-0.877,-0.8763,-0.8763,-0.8756,-0.8756,-0.8756]},{"header":{"parameterUnit":"m.s-1","parameterCategory":1,"la1":30.2991,"la2":30.254,"lo1":-89.0895,"lo2":-89.0444,"dx":0.0017,"dy":0.0017,"nx":28,"ny":28,"refTime":"2023-01-30T15:00:00:Z","depth":0,"parameterNumber":3,"parameterNumberName":"V-component_of_WINDS"},"data":[0,0,0,0,0,0,0,0,0,0,0,0,0,0,0,0,0,0,0,0,0,0,0,0,0,0,0,0,0,0,0,0,0,0,0,0,0,0,0,0,0,0,0,0,0,0,0,0,0,0,0,0,0,0,0,0,0,0,2.0864,2.0864,0,2.087,2.087,2.087,2.0823,2.0822,2.0821,2.082,2.0825,2.0826,2.0827,0,0,0,0,0,0,0,0,0,0,0,0,0,2.0811,2.0812,2.0864,2.0864,2.0864,2.087,2.087,2.087,2.0824,2.0822,2.082,2.0819,2.0824,2.0826,2.0827,0,0,0,0,0,0,0,0,0,0,0,0,0,2.0827,2.0813,2.0864,2.0842,2.084,2.087,2.087,2.087,2.0824,2.0822,2.082,2.0818,2.0824,2.0826,2.0828,2.0879,0,0,2.0834,2.0835,0,0,0,0,0,0,0,0,2.0827,2.0829,2.0845,2.0843,2.0841,2.0844,2.0853,2.0873,2.0824,2.083,2.082,2.0817,2.0833,2.0834,2.0839,2.0879,2.0879,2.0834,2.0835,2.0836,2.0837,0,0,0,0,0,0,0,2.0825,2.0829,2.0866,2.0845,2.0843,2.0831,2.0831,2.0857,2.0842,2.0829,2.0826,2.0827,2.0831,2.0837,2.0839,2.0879,2.0834,2.0836,2.0837,2.0838,2.0962,2.0964,0,0,0,0,0,0,2.0827,2.0828,2.0866,2.0866,2.0829,2.0834,2.0834,2.0845,2.0842,2.0839,2.0829,2.0825,2.0835,2.0836,2.0839,2.0899,2.0836,2.0838,2.0839,2.096,2.0963,2.0965,0,0,0,0,0,0,2.0827,2.0831,2.0866,2.0846,2.085,2.0837,2.085,2.0846,2.0852,2.0841,2.0838,2.0838,2.0833,2.0836,2.0869,2.0899,2.0839,2.0841,2.0958,2.0961,2.0964,2.1021,0,0,0,0,0,0,2.0825,2.0831,2.0851,2.0847,2.0851,2.0897,2.0851,2.0848,2.0856,2.0851,2.0849,2.0847,2.0832,2.0867,2.0872,2.09,2.0842,2.0955,2.0959,2.0963,2.1016,2.1025,2.1033,0,0,0,0,0,2.0824,2.0866,2.0852,2.0857,2.0876,2.0899,2.0901,2.0883,2.0858,2.0878,2.0871,2.0847,2.0895,2.0871,2.0876,2.0906,2.0953,2.0958,2.0963,2.1012,2.1023,2.1033,0,0,0,0,0,0,2.0873,2.0865,2.085,2.0893,2.0897,2.0891,2.0915,2.0895,2.0906,2.0901,2.0878,2.0878,2.0916,2.0914,2.0887,2.0955,2.092,2.0926,2.0956,2.0966,2.0975,2.0975,2.0844,0,0,0,0,0,2.0889,2.0909,2.0901,2.094,2.0943,2.0929,2.0938,2.0924,2.0927,2.0929,2.0924,2.0928,2.0944,2.0954,2.0968,2.1015,2.1014,2.1038,2.1047,2.1054,2.106,2.1085,2.1095,2.0981,2.0981,2.0981,0,0,2.0923,2.0921,2.0935,2.095,2.0951,2.0972,2.093,2.0954,2.0969,2.0932,2.0964,2.0961,2.0963,2.1004,2.1021,2.1003,2.1091,2.106,2.1066,2.1068,2.1091,2.1102,2.1111,2.0984,2.0983,2.0983,0,0,2.0994,2.0995,2.1027,2.103,2.1033,2.1023,2.1031,2.1028,2.1025,2.1056,2.1029,2.1046,2.1074,2.1077,2.1082,2.1155,2.1134,2.116,2.1205,2.123,2.1239,2.1247,2.1274,2.1284,2.1166,2.1166,2.1166,0,2.1035,2.1066,2.1046,2.1072,2.108,2.1047,2.108,2.1083,2.109,2.1096,2.1076,2.111,2.1109,2.1151,2.1169,2.1174,2.1182,2.1161,2.124,2.1247,2.1254,2.128,2.129,2.1169,2.1169,2.1169,2.1168,0,2.1117,2.1138,2.1164,2.1173,2.1183,2.1212,2.1197,2.1209,2.1194,2.1187,2.1219,2.1217,2.1231,2.1239,2.1224,2.1279,2.1267,2.1244,2.1207,2.1269,2.1293,2.1302,2.1174,2.1173,2.1172,2.1171,0,0,2.122,2.1218,2.1228,2.1232,2.1232,2.1249,2.1276,2.129,2.1301,2.1307,2.133,2.1354,2.1332,2.1338,2.1324,2.1345,2.1404,2.1319,2.1319,2.1336,2.1464,2.1483,2.1495,2.1389,2.1391,2.1392,2.1464,0,2.1291,2.1339,2.1322,2.137,2.1391,2.136,2.1384,2.1387,2.138,2.1396,2.1389,2.1407,2.1376,2.138,2.14,2.1393,2.143,2.1387,2.1411,2.1412,2.1412,2.1507,2.1527,2.1595,2.1473,2.1475,2.1476,0,2.138,2.1391,2.1442,2.1439,2.1447,2.1469,2.148,2.1496,2.1498,2.1492,2.1499,2.148,2.1506,2.147,2.1506,2.1478,2.1486,2.1484,2.1486,2.1489,2.1449,2.1513,2.1616,2.1627,2.149,2.1489,2.1488,0,2.1452,2.1479,2.1513,2.1517,2.1515,2.1531,2.1531,2.1532,2.1541,2.155,2.1556,2.1568,2.1575,2.1585,2.1569,2.1544,2.1609,2.157,2.1605,2.1605,2.1621,2.162,2.1728,2.1624,2.1624,2.1624,2.1624,0,2.1534,2.1566,2.1545,2.1566,2.1602,2.1582,2.1617,2.1613,2.1614,2.1634,2.1607,2.1626,2.1604,2.1621,2.1609,2.1641,2.1644,2.164,2.1637,2.1644,2.1644,2.165,2.1645,2.1627,2.1626,2.1626,2.1625,0,2.1621,2.1608,2.1643,2.1638,2.1638,2.1665,2.166,2.168,2.1671,2.1696,2.1701,2.1688,2.1706,2.1691,2.1709,2.1701,2.1745,2.1734,2.1744,2.1742,2.1777,2.1774,2.1893,2.1908,2.1794,2.1795,2.1796,0,2.1674,2.1699,2.1697,2.1708,2.171,2.1729,2.1738,2.1719,2.173,2.1735,2.1753,2.177,2.1782,2.1812,2.1804,2.1818,2.1808,2.1848,2.181,2.1816,2.181,2.1809,2.1812,2.1857,2.1858,2.1859,2.186,0,2.1771,2.1764,2.1778,2.1791,2.1804,2.1812,2.1819,2.183,2.181,2.1824,2.1842,2.1852,2.187,2.1887,2.1897,2.1897,2.1876,2.1872,2.1881,2.1889,2.1894,2.1893,2.1767,2.187,2.1869,2.1868,2.1868,2.1867,2.1844,2.1865,2.1867,2.1884,2.1887,2.1894,2.1912,2.1906,2.1922,2.1936,2.1922,2.1945,2.1947,2.196,2.1962,2.1979,2.1962,2.1975,2.1978,2.1982,2.1988,2.189,2.1981,2.198,2.198,2.198,2.198,0,2.194,2.194,2.1956,2.1967,2.1981,2.1959,2.1966,2.1979,2.1999,2.2003,2.2015,2.2037,2.2053,2.2046,2.206,2.2075,2.2066,2.208,2.2079,2.208,2.2001,2.1993,2.2087,2.2087,2.2087,2.2087,2.2087,2.2087,2.1992,2.2027,2.2019,2.2054,2.2053,2.2076,2.2082,2.2088,2.2091,2.2117,2.213,2.2125,2.2125,2.2138,2.2152,2.2149,2.2156,2.2174,2.2168,2.2096,2.2085,2.2075,2.2067,2.2175,2.2175,2.2245,2.2246,2.2246]}]]